Regional Weather Roundup
Issued by NWS Newport/Morehead, NC

Current Version | Previous Version | Graphics & Text | Print | Product List | Glossary Off
Versions: 1 2 3 4 5 6 7 8 9 10 11 12 13 14 15 16 17 18 19 20 21 22 23 24 25 26 27 28 29 30 31 32 33 34 35 36 37 38 39 40 41 42 43 44 45 46 47 48 49 50

000
ASUS42 KMHX 232125
RWRMHX
WEATHER ROUNDUP FOR EASTERN NORTH CAROLINA
NATIONAL WEATHER SERVICE NEWPORT/MOREHEAD CITY NC
500 PM EDT MON OCT 23 2017

NOTE: "FAIR" INDICATES FEW OR NO CLOUDS BELOW 12,000 FEET
WITH NO SIGNIFICANT WEATHER AND/OR OBSTRUCTIONS TO VISIBILITY

NCZ015>017-031-032-045>047-102-103-232200-
NORTH COAST

CITY           SKY/WX    TMP DP  RH WIND       PRES   REMARKS
EDENTON        CLOUDY    77  68  73 S10       30.01F
ELIZABETH CITY CLOUDY    77  67  71 S12G20    30.02F
KITTY HAWK     PTCLDY    75  63  67 S7        30.03F
MANTEO         PTSUNNY  N/A N/A N/A S12G17    30.04F

$$

NCZ045>047-081-094-103-104-232200-
CENTRAL COAST

CITY           SKY/WX    TMP DP  RH WIND       PRES   REMARKS
FRISCO         CLOUDY    78  69  73 S17       30.05F

$$

NCZ095-097-098-100-101-232200-
SOUTHERN COAST

CITY           SKY/WX    TMP DP  RH WIND       PRES   REMARKS
BEAUFORT       CLOUDY    76  69  79 SE13G21   30.01F
CEDAR ISLAND   NOT AVBL
JACKSONVILLE   LGT RAIN  73  72  96 SE16      29.98F FOG
PINEY ISLAND     N/A    N/A N/A N/A SE14      30.01F
WILMINGTON     CLOUDY    78  67  68 SE10      29.97F


$$

NCZ011>013-027>030-043-044-078>080-089-090>093-098-232200-
COASTAL PLAIN

CITY           SKY/WX    TMP DP  RH WIND       PRES   REMARKS
AHOSKIE        CLOUDY    75  66  74 SE9       29.97F
CLINTON        CLOUDY    76  65  69 SE5       29.95S
ELIZABETHTOWN  NOT AVBL
GOLDSBORO      CLOUDY    77  64  63 S13G18    29.94F
GREENVILLE     CLOUDY    77  63  61 S9        29.99F
HAVELOCK       CLOUDY    77  70  79 SE15G22   30.01F
KENANSVILLE    CLOUDY    75  66  73 SE7       29.96F
KINSTON        CLOUDY    77  64  65 SE12      29.98F
NEW BERN       CLOUDY    75  69  81 SE8       30.00F
RICHLANDS      PTSUNNY   76  68  76 SE8       29.98F
ROCKY MOUNT    PTSUNNY   76  62  62 SE9       29.94F
WASHINGTON     CLOUDY    76  65  67 S7        29.99F
WHITEVILLE     CLOUDY    76  69  77 S8        29.94S

$$

AMZ130-135-150-152-154-156-158-170-250-252-270-ANZ085-086-088-633-658-670-232200-
MARINE OBSERVATIONS

STATION/POSITION TIME  TEMP    WIND        PRES    WAVE   SWELL
                       AIR SEA DIR/SP/G            HT/PER HT/PER
                 (UTC) (F)     (DEG/KT/KT) (MB)    (FT/S) (FT/S)
CHESAPEAKE LIGHT NOT AVBL
64 E VA BEACH    2050   74 70  150/ 16/ 17 1018.3    4/ 5   2/ 8
DUCK             2100   76 71  160/ 17/ 19 1016.4
2 E DUCK         2100      71                N/A     3/ 6
OREGON INLET     2100   75 72  160/ 11/ 15 1017.4
13E OREGON INLT  2048      72                N/A     5/ 6   3/ 9
HATTERAS CG      2100   77 73  170/ 16/ 19 1017.3
DIAMOND BUOY     2050   79 80  160/ 19/ 23 1017.4    6/ 6   2/10
CAPE LOOKOUT     2100   76     150/ 21/ 23 1015.9
BEAUFORT LAB     2100   76 74  150/ 13/ 17 1016.2
30 SE NEW RVR IN 2108   74     190/ 17/ 35 1015.7
30 SE NEW RVR IN NOT AVBL
27 SE WRIGHTSVLE 2108   76 76  160/ 14/ 21 1015.2
5 SE WRIGHTSVLE  2108   76 74  160/ 12/ 17 1014.8
225 S CAPE HAT   2050   78 80  140/ 17/ 19 1018.3    5/ 5   2/ 9
41 SE CHARLESTON 2110   80 80  150/ 23/ 29 1012.5

$$



USA.gov is the U.S. government's official web portal to all federal, state and local government web resources and services.